Regional Weather Roundup
Issued by NWS

Home | Current Version | Previous Version | Graphics & Text | Print | Product List | Glossary On
Versions: 1 2 3 4 5 6 7 8 9 10 11 12 13 14 15 16 17 18 19 20 21 22 23 24 25 26 27 28 29 30 31 32 33 34 35 36 37 38 39 40 41 42 43 44 45 46 47 48 49 50
000
ASUS43 KFSD 212110
RWRSD

WEATHER ROUNDUP FOR SOUTH DAKOTA
NATIONAL WEATHER SERVICE SIOUX FALLS SD
300 PM CST TUE FEB 21 2017

NOTE: "FAIR" INDICATES FEW OR NO CLOUDS BELOW 12,000 FEET WITH NO
SIGNIFICANT WEATHER AND/OR OBSTRUCTIONS TO VISIBILITY.


SDZ001>005-009-010-012>017-212200-
NORTHWEST AND NORTH CENTRAL SOUTH DAKOTA

CITY           SKY/WX    TMP DP  RH WIND       PRES   REMARKS
BUFFALO          N/A     68  31  25 W18G25    29.58F
FAITH            N/A     67  36  31 W12       29.65F
MOBRIDGE       SUNNY     59  38  45 SE9       29.64F
$$

SDZ012>016-024>037-041>051-057-063-072>074-212200-
SOUTHWEST AND SOUTH CENTRAL SOUTH DAKOTA

CITY           SKY/WX    TMP DP  RH WIND       PRES   REMARKS
RAPID CTY ARPT SUNNY     70  28  21 W28G38    29.68F
PIERRE         SUNNY     69  34  27 SW5       29.67F
CUSTER         MOSUNNY   58  24  27 SW14G31   29.79F
ELLSWORTH AFB  MOSUNNY   71  29  21 W29G38    29.67F
PHILIP         SUNNY     74  32  21 W18G25    29.66F
PINE RIDGE     SUNNY     71  29  21 W28G43    29.75F
SPEARFISH      FAIR      68  32  26 W17G29    29.69F
WINNER         FAIR      76  35  22 NW15G26   29.71S
$$

SDZ004>011-016>023-039-040-212200-
NORTHEAST SOUTH DAKOTA

CITY           SKY/WX    TMP DP  RH WIND       PRES   REMARKS
ABERDEEN       SUNNY     62  35  36 SW7       29.68F
WATERTOWN      SUNNY     58  43  57 SW13      29.71S
BROOKINGS      SUNNY     61  40  45 SW12      29.71F
SISSETON         N/A     57  44  62 W10       29.67R
$$

SDZ017-020-022-023-036>040-048>070-212200-
SOUTHEAST SOUTH DAKOTA

CITY           SKY/WX    TMP DP  RH WIND       PRES   REMARKS
SIOUX FALLS    MOSUNNY   66  39  37 W9        29.73S
HURON          SUNNY     68  36  30 NW5       29.68F
CHAMBERLAIN    SUNNY     71  36  28 CALM      29.71S
MITCHELL       SUNNY     69  36  29 W7        29.70F
YANKTON        SUNNY     75  36  23 W16       29.70F
$$

ABBREVIATIONS USED IN REMARKS
   TC - TEMPERATURE IN CELSIUS
  WCI - WIND CHILL INDEX
   HX - HEAT INDEX
  VSB - VISIBILITY





USA.gov is the U.S. government's official web portal to all federal, state and local government web resources and services.